Weather History for KCSM - December, 2012

Change the Weather History Date:

Friday, December 28, 2012

  Actual Average (WUND) Record (WUND)
Temperature  
Mean Temperature 24 °F -  
Max Temperature 30 °F - - (-1)
Min Temperature 18 °F - - (-1)
Degree Days  
Heating Degree Days 40    
Moisture  
Dew Point 16 °F    
Average Humidity 76    
Maximum Humidity 88    
Minimum Humidity 50    
Precipitation  
Precipitation 0.00 in - - ()
Sea Level Pressure  
Sea Level Pressure 30.08 in    
Wind  
Wind Speed 13 mph (NNW)    
Max Wind Speed 21 mph    
Max Gust Speed 26 mph    
Visibility 8 miles    
Events Snow    
Averages and records for this station are not official NWS values.
T = Trace of Precipitation, MM = Missing Value Source: NWS Daily Summary

Daily Weather History Graph

Daily Weather History Graph

Search for Another Location

Airport or City:

Trip Planner

Search our weather history database for the weather conditions in past years. The results will help you decide how hot, cold, wet, or windy it might be!

Date:

Astronomy

Dec. 28, 2012 Rise Set
Actual Time 7:44 AM CST 5:32 PM CST
Civil Twilight 7:16 AM CST 6:00 PM CST
Nautical Twilight 6:44 AM CST 6:32 PM CST
Astronomical Twilight 6:13 AM CST 7:03 PM CST
Moon 6:08 PM CST (12/28) 7:42 AM CST (12/28)
Length of Visible Light 10h 44m
Length of Day
9h 47m
Full, 100% of the Moon is Illuminated
Dec 28
Full
Jan 4
Last Quarter
Jan 11
New
Jan 18
First Quarter
Jan 26
Full

Hourly Weather History & Observations

Time (CST) Temp. Windchill Dew Point Humidity Pressure Visibility Wind Dir Wind Speed Gust Speed Precip Events Conditions
12:53 AM 21.0 °F 9.9 °F 17.1 °F 85% 30.00 in 10.0 mi NNW 10.4 mph - N/A   Clear
1:53 AM 21.9 °F 8.7 °F 17.1 °F 82% 30.00 in 10.0 mi North 15.0 mph - N/A   Clear
2:53 AM 21.0 °F 9.3 °F 17.1 °F 85% 30.02 in 10.0 mi North 11.5 mph - N/A   Partly Cloudy
3:53 AM 21.0 °F 9.3 °F 17.1 °F 85% 30.02 in 10.0 mi North 11.5 mph - N/A   Partly Cloudy
4:53 AM 21.9 °F 11.0 °F 18.0 °F 85% 30.02 in 9.0 mi NNW 10.4 mph - N/A   Overcast
5:11 AM 21.2 °F 9.5 °F 17.6 °F 86% 29.97 in 10.0 mi NNW 11.5 mph - N/A   Overcast
5:22 AM 21.2 °F 8.3 °F 17.6 °F 86% 29.96 in 10.0 mi NNW 13.8 mph - N/A   Overcast
5:53 AM 23.0 °F 10.6 °F 19.0 °F 85% 30.02 in 10.0 mi North 13.8 mph - N/A   Overcast
6:53 AM 24.1 °F 11.0 °F 19.0 °F 81% 30.04 in 10.0 mi North 16.1 mph - N/A   Overcast
7:08 AM 24.8 °F 12.9 °F 19.4 °F 80% 30.00 in 1.8 mi North 13.8 mph - 0.00 in Snow Light Snow
7:15 AM 23.0 °F 9.6 °F 19.4 °F 86% 30.00 in 1.0 mi North 16.1 mph - 0.00 in Snow Light Snow
7:34 AM 23.0 °F 11.1 °F 19.4 °F 86% 30.01 in 2.0 mi North 12.7 mph - 0.00 in Snow Light Snow
7:48 AM 23.0 °F 10.6 °F 19.4 °F 86% 30.01 in 3.0 mi North 13.8 mph - 0.00 in Snow Light Snow
7:53 AM 23.0 °F 10.1 °F 19.9 °F 88% 30.08 in 4.0 mi North 15.0 mph - 0.00 in Snow Light Snow
8:43 AM 23.0 °F 8.7 °F 17.6 °F 80% 30.02 in 2.5 mi North 18.4 mph - 0.00 in Snow Light Snow
8:50 AM 21.2 °F 5.6 °F 17.6 °F 86% 30.03 in 0.8 mi North 20.7 mph 26.5 mph 0.00 in Snow Light Snow
8:51 AM 21.2 °F 5.6 °F 17.6 °F 86% 30.03 in 0.8 mi North 20.7 mph 26.5 mph 0.00 in Snow Light Snow
8:53 AM 21.9 °F 7.3 °F 18.0 °F 85% 30.10 in 0.8 mi North 18.4 mph - 0.00 in Snow Light Snow
8:57 AM 23.0 °F 9.2 °F 17.6 °F 80% 30.03 in 1.0 mi North 17.3 mph 25.3 mph 0.00 in Snow Light Snow
9:02 AM 23.0 °F 9.6 °F 15.8 °F 74% 30.03 in 4.0 mi North 16.1 mph - 0.00 in Snow Light Snow
9:13 AM 23.0 °F 9.6 °F 15.8 °F 74% 30.04 in 10.0 mi North 16.1 mph - 0.00 in   Overcast
9:53 AM 23.0 °F 10.1 °F 15.1 °F 72% 30.13 in 10.0 mi NNW 15.0 mph - 0.00 in   Scattered Clouds
10:53 AM 23.0 °F 9.6 °F 12.9 °F 65% 30.16 in 10.0 mi NNW 16.1 mph - N/A   Mostly Cloudy
11:53 AM 26.1 °F 12.3 °F 14.0 °F 60% 30.15 in 10.0 mi NNW 19.6 mph 23.0 mph N/A   Clear
12:53 PM 26.1 °F 14.5 °F 14.0 °F 60% 30.12 in 10.0 mi NNW 13.8 mph 24.2 mph N/A   Clear
1:53 PM 28.9 °F 16.9 °F 14.0 °F 54% 30.09 in 10.0 mi NNW 17.3 mph - N/A   Clear
2:53 PM 30.0 °F 19.1 °F 15.1 °F 54% 30.09 in 10.0 mi NNW 15.0 mph - N/A   Clear
3:53 PM 30.9 °F 20.7 °F 14.0 °F 50% 30.10 in 10.0 mi NNW 13.8 mph - N/A   Clear
4:53 PM 30.0 °F 21.1 °F 16.0 °F 56% 30.13 in 10.0 mi NNW 10.4 mph - N/A   Clear
5:53 PM 24.1 °F 17.0 °F 15.1 °F 69% 30.15 in 10.0 mi NW 5.8 mph - N/A   Clear
6:53 PM 21.9 °F 13.4 °F 14.0 °F 72% 30.18 in 10.0 mi NW 6.9 mph - N/A   Clear
7:53 PM 21.0 °F 12.4 °F 12.9 °F 71% 30.20 in 10.0 mi NW 6.9 mph - N/A   Clear
8:53 PM 19.0 °F 9.0 °F 12.0 °F 74% 30.22 in 10.0 mi WNW 8.1 mph - N/A   Clear
9:53 PM 19.9 °F 9.3 °F 12.9 °F 74% 30.24 in 10.0 mi West 9.2 mph - N/A   Clear
10:53 PM 19.9 °F 10.1 °F 12.9 °F 74% 30.25 in 10.0 mi WNW 8.1 mph - N/A   Clear
11:53 PM 18.0 °F 8.7 °F 12.0 °F 78% 30.27 in 10.0 mi West 6.9 mph - N/A   Clear